• în Republica Moldova
  • Lista ţărilor
  • Pe 7 zile
  • Temperatura apei
  • Hartă satelitară
  • Meteo pe hartă
  • Widget-uri
  • user-avatar
    Intrare

    Meteo pe oră la Canberra

    Astăzi, 25 Martie, Sâmbătă

    Timp Temperatura Precipitaţii Vânt Presiune Umiditate
    00:00 +15°C° 0 mm 1 m/s 711 mmHg 92%
    01:00 +15°C° 0 mm 1 m/s 711 mmHg 91%
    02:00 +15°C° 0 mm 1 m/s 710 mmHg 93%
    03:00 +14°C° 0 mm 1 m/s 710 mmHg 95%
    04:00 +13°C° 0 mm 1 m/s 709 mmHg 98%
    05:00 +14°C° 0 mm 1 m/s 709 mmHg 97%
    06:00 +14°C° 0 mm 1 m/s 709 mmHg 95%
    07:00 +15°C° 0 mm 1 m/s 710 mmHg 94%
    08:00 +18°C° 0 mm 1 m/s 710 mmHg 83%
    09:00 +20°C° 0 mm 1 m/s 710 mmHg 73%
    10:00 +21°C° 0 mm 1 m/s 710 mmHg 68%
    11:00 +20°C° 0,4 mm 1 m/s 709 mmHg 73%
    12:00 +20°C° 0,4 mm 1 m/s 709 mmHg 79%
    13:00 +19°C° 0,4 mm 1 m/s 708 mmHg 84%
    14:00 +21°C° 0 mm 1 m/s 708 mmHg 78%
    15:00 +22°C° 0 mm 1 m/s 708 mmHg 72%
    16:00 +22°C° 0 mm 1 m/s 708 mmHg 74%
    17:00 +20°C° 0 mm 1 m/s 708 mmHg 81%
    18:00 +19°C° 0 mm 1 m/s 708 mmHg 89%
    19:00 +16°C° 0 mm 1 m/s 708 mmHg 97%
    20:00 +16°C° 0 mm 1 m/s 708 mmHg 97%
    21:00 +14°C° 0 mm 0 m/s 708 mmHg 97%
    22:00 +13°C° 0 mm 0 m/s 708 mmHg 97%
    23:00 +13°C° 0 mm 0 m/s 708 mmHg 96%

    Mâine, 26 Martie, Duminică

    Timp Temperatura Precipitaţii Vânt Presiune Umiditate
    00:00 +14°C° 0 mm 1 m/s 708 mmHg 96%
    01:00 +14°C° 0 mm 1 m/s 708 mmHg 95%
    02:00 +14°C° 0 mm 1 m/s 708 mmHg 95%
    03:00 +14°C° 0 mm 1 m/s 708 mmHg 95%
    04:00 +14°C° 0 mm 1 m/s 708 mmHg 94%
    05:00 +15°C° 0 mm 1 m/s 708 mmHg 91%
    06:00 +15°C° 0 mm 1 m/s 708 mmHg 88%
    07:00 +16°C° 0 mm 1 m/s 709 mmHg 85%
    08:00 +20°C° 0 mm 1 m/s 709 mmHg 72%
    09:00 +23°C° 0 mm 1 m/s 710 mmHg 58%
    10:00 +27°C° 0 mm 1 m/s 711 mmHg 44%
    11:00 +28°C° 0 mm 1 m/s 710 mmHg 41%
    12:00 +29°C° 0 mm 1 m/s 710 mmHg 38%
    13:00 +30°C° 0 mm 1 m/s 710 mmHg 34%
    14:00 +29°C° 0 mm 1 m/s 710 mmHg 36%
    15:00 +29°C° 0 mm 2 m/s 709 mmHg 37%
    16:00 +28°C° 0 mm 2 m/s 709 mmHg 38%
    17:00 +26°C° 0 mm 2 m/s 709 mmHg 49%
    18:00 +23°C° 0 mm 2 m/s 709 mmHg 60%
    19:00 +19°C° 0 mm 2 m/s 709 mmHg 71%
    20:00 +18°C° 0 mm 2 m/s 709 mmHg 78%
    21:00 +18°C° 0 mm 1 m/s 709 mmHg 85%
    22:00 +16°C° 0 mm 1 m/s 710 mmHg 92%
    23:00 +16°C° 0 mm 1 m/s 709 mmHg 93%

    Poimâine, 27 Martie, Luni

    Timp Temperatura Precipitaţii Vânt Presiune Umiditate
    00:00 +15°C° 0 mm 1 m/s 709 mmHg 95%
    01:00 +15°C° 0 mm 1 m/s 709 mmHg 97%
    02:00 +15°C° 0 mm 1 m/s 709 mmHg 97%
    03:00 +14°C° 0 mm 1 m/s 709 mmHg 98%
    04:00 +14°C° 0 mm 1 m/s 708 mmHg 98%
    05:00 +15°C° 0 mm 1 m/s 709 mmHg 97%
    06:00 +16°C° 0 mm 1 m/s 709 mmHg 95%
    07:00 +16°C° 0 mm 1 m/s 709 mmHg 94%
    08:00 +20°C° 0 mm 1 m/s 709 mmHg 80%
    09:00 +23°C° 0 mm 2 m/s 709 mmHg 66%
    10:00 +26°C° 0 mm 2 m/s 710 mmHg 51%
    11:00 +28°C° 0 mm 3 m/s 709 mmHg 47%
    12:00 +29°C° 0 mm 3 m/s 708 mmHg 44%
    13:00 +31°C° 0 mm 3 m/s 708 mmHg 40%
    14:00 +31°C° 0 mm 3 m/s 707 mmHg 40%
    15:00 +31°C° 0 mm 3 m/s 707 mmHg 40%
    16:00 +32°C° 0 mm 4 m/s 706 mmHg 41%
    17:00 +29°C° 0 mm 3 m/s 706 mmHg 49%
    18:00 +27°C° 0 mm 2 m/s 706 mmHg 58%
    19:00 +24°C° 0 mm 2 m/s 705 mmHg 67%
    20:00 +24°C° 0,1 mm 2 m/s 706 mmHg 70%
    21:00 +23°C° 0,1 mm 2 m/s 706 mmHg 74%
    22:00 +21°C° 0,1 mm 2 m/s 707 mmHg 78%
    23:00 +21°C° 0,2 mm 1 m/s 707 mmHg 82%

    28 Martie, Marţi

    Timp Temperatura Precipitaţii Vânt Presiune Umiditate
    00:00 +20°C° 0,2 mm 1 m/s 707 mmHg 87%
    01:00 +19°C° 0,2 mm 1 m/s 707 mmHg 92%
    02:00 +19°C° 0 mm 1 m/s 707 mmHg 93%
    03:00 +19°C° 0 mm 1 m/s 707 mmHg 95%
    04:00 +18°C° 0 mm 1 m/s 707 mmHg 96%
    05:00 +19°C° 0 mm 1 m/s 707 mmHg 96%
    06:00 +19°C° 0 mm 1 m/s 708 mmHg 95%
    07:00 +19°C° 0 mm 1 m/s 708 mmHg 95%
    08:00 +21°C° 0 mm 1 m/s 709 mmHg 87%
    09:00 +22°C° 0 mm 1 m/s 709 mmHg 79%
    10:00 +23°C° 0 mm 1 m/s 710 mmHg 72%
    11:00 +25°C° 0 mm 2 m/s 709 mmHg 64%
    12:00 +27°C° 0 mm 2 m/s 709 mmHg 56%
    13:00 +29°C° 0 mm 2 m/s 709 mmHg 48%
    14:00 +29°C° 0 mm 2 m/s 709 mmHg 44%
    15:00 +29°C° 0 mm 2 m/s 709 mmHg 40%
    16:00 +29°C° 0 mm 3 m/s 708 mmHg 36%
    17:00 +26°C° 0 mm 2 m/s 708 mmHg 47%
    18:00 +21°C° 0 mm 2 m/s 708 mmHg 57%
    19:00 +19°C° 0 mm 1 m/s 708 mmHg 68%
    20:00 +18°C° 0 mm 1 m/s 708 mmHg 72%
    21:00 +16°C° 0 mm 1 m/s 709 mmHg 77%
    22:00 +15°C° 0 mm 1 m/s 709 mmHg 82%
    23:00 +15°C° 0 mm 1 m/s 709 mmHg 85%

    29 Martie, Miercuri

    Timp Temperatura Precipitaţii Vânt Presiune Umiditate
    00:00 +15°C° 0 mm 1 m/s 708 mmHg 87%
    01:00 +15°C° 0 mm 1 m/s 708 mmHg 90%
    02:00 +15°C° 0 mm 1 m/s 708 mmHg 91%
    03:00 +15°C° 0 mm 1 m/s 708 mmHg 93%
    04:00 +15°C° 0 mm 1 m/s 707 mmHg 95%
    05:00 +16°C° 0 mm 1 m/s 708 mmHg 94%
    06:00 +16°C° 0 mm 1 m/s 708 mmHg 94%
    07:00 +18°C° 0 mm 1 m/s 708 mmHg 93%
    08:00 +20°C° 0 mm 2 m/s 709 mmHg 81%
    09:00 +24°C° 0 mm 2 m/s 709 mmHg 69%
    10:00 +27°C° 0 mm 3 m/s 709 mmHg 58%
    11:00 +29°C° 0 mm 4 m/s 709 mmHg 52%
    12:00 +30°C° 0 mm 5 m/s 708 mmHg 46%
    13:00 +33°C° 0 mm 5 m/s 708 mmHg 41%
    14:00 +33°C° 0 mm 5 m/s 707 mmHg 41%
    15:00 +33°C° 0 mm 5 m/s 707 mmHg 41%
    16:00 +32°C° 0 mm 5 m/s 706 mmHg 42%
    17:00 +29°C° 0,4 mm 4 m/s 706 mmHg 51%
    18:00 +26°C° 0,4 mm 3 m/s 706 mmHg 61%
    19:00 +24°C° 0,4 mm 2 m/s 706 mmHg 70%
    20:00 +23°C° 0,7 mm 2 m/s 706 mmHg 76%
    21:00 +23°C° 0,7 mm 2 m/s 706 mmHg 81%
    22:00 +21°C° 0,7 mm 2 m/s 706 mmHg 87%
    23:00 +21°C° 0,7 mm 2 m/s 706 mmHg 89%

    30 Martie, Joi

    Timp Temperatura Precipitaţii Vânt Presiune Umiditate
    00:00 +21°C° 0,7 mm 2 m/s 705 mmHg 90%
    01:00 +20°C° 0,7 mm 2 m/s 705 mmHg 92%
    02:00 +20°C° 0,9 mm 2 m/s 705 mmHg 92%
    03:00 +20°C° 0,9 mm 2 m/s 704 mmHg 92%
    04:00 +20°C° 0,9 mm 2 m/s 704 mmHg 92%
    05:00 +20°C° 0,5 mm 2 m/s 704 mmHg 92%
    06:00 +20°C° 0,5 mm 2 m/s 704 mmHg 93%
    07:00 +20°C° 0,5 mm 3 m/s 705 mmHg 93%
    08:00 +19°C° 0,7 mm 2 m/s 705 mmHg 91%
    09:00 +19°C° 0,7 mm 2 m/s 705 mmHg 88%
    10:00 +19°C° 0,7 mm 2 m/s 705 mmHg 86%
    11:00 +20°C° 0,2 mm 2 m/s 705 mmHg 77%
    12:00 +21°C° 0,2 mm 2 m/s 706 mmHg 67%
    13:00 +23°C° 0,2 mm 2 m/s 706 mmHg 58%
    14:00 +21°C° 0,2 mm 2 m/s 706 mmHg 59%
    15:00 +20°C° 0,2 mm 2 m/s 706 mmHg 61%
    16:00 +20°C° 0,2 mm 2 m/s 706 mmHg 62%
    17:00 +18°C° 0,1 mm 3 m/s 707 mmHg 68%
    18:00 +14°C° 0,1 mm 3 m/s 707 mmHg 73%
    19:00 +12°C° 0,1 mm 3 m/s 708 mmHg 79%
    20:00 +12°C° 0 mm 3 m/s 709 mmHg 77%
    21:00 +11°C° 0 mm 3 m/s 709 mmHg 74%
    22:00 +10°C° 0 mm 3 m/s 710 mmHg 72%
    23:00 +10°C° 0 mm 3 m/s 710 mmHg 72%
    Arată mai mult